www.pogodaiklimat.ru

Погода и климат >> Архив погоды >> Пакистан >> Суккур


ПОГОДА в Суккуре

  • Прогноз погоды в Суккуре
  • Монитор погоды в Суккуре

АРХИВ ПОГОДЫ в Суккуре

Время (UTC), дата Ветер
(напр.,м/с)
 
Видим.   Явления Облачность Т
(С)
Тd
(С)
f
(%)
Тe
(С)
Тes
(С)
Комфортность P
(гПа)
Po
(гПа)
Тmin
(С)
Tmax
(С)
R
(мм)
R24
(мм)
S
(см)
03 14.09 ЮВ 3 4000 м мгла ясно +29.5 +25.3 78 +43 +45 опасность
перегрева
1005.0 997.4 +26.5
06 14.09 СВ 2 4000 м мгла ясно +35.0 +26.1 60 +51 +66 опасность
перегрева
1005.8 999.5
09 14.09 ЮВ 2 4000 м мгла ясно +38.5 +27.0 52 +56 +71 опасность
перегрева
1004.0 997.7
12 14.09 ЮЗ 3 4000 м мгла 5/0
[Ci fib]
+40.0 +26.4 47 +56 +58 опасность
перегрева
1002.4 995.1 +40.5
15 14.09 штиль 0 4000 м мгла 5/0
[Ci fib]
+34.5 +28.5 71 +57 +57 опасность
перегрева
1003.3 997.0
18 14.09 штиль 0 4000 м мгла 4/0
[Ci fib]
+32.0 +27.2 76 +50 +50 опасность
перегрева
1005.0 998.6
21 14.09 СВ 2 4000 м дымка ясно +30.0 +26.5 82 +46 +46 опасность
перегрева
1004.1 997.7
00 15.09 штиль 0 4000 м дымка ясно +28.5 +26.7 90 +44 +44 опасность
перегрева
1003.9 996.3
03 15.09 штиль 0 4000 м мгла 4/0
[Ci fib]
+30.0 +25.8 78 +45 +48 опасность
перегрева
1006.0 998.4 +28.0
06 15.09 штиль 0 4000 м мгла ясно +36.5 +27.0 58 +54 +75 опасность
перегрева
1006.9 1000.6
09 15.09 штиль 0 4000 м мгла ясно +40.0 +25.6 44 +54 +74 опасность
перегрева
1004.4 998.2
12 15.09 Ю 2 4000 м мгла ясно +41.0 +26.0 43 +55 +58 опасность
перегрева
1002.8 995.5 +41.5
18 15.09 ЮЗ 3 4000 м мгла ясно +31.5 +25.2 69 +45 +45 опасность
перегрева
1005.2 998.8
21 15.09 штиль 0 4000 м мгла ясно +30.0 +24.3 72 +42 +42 опасность
перегрева
1004.3 997.9
00 16.09 штиль 0 4000 м мгла ясно +29.0 +24.0 74 +40 +40 очень
душно
1003.8 996.2
06 16.09 ЮЗ 2 4000 м мгла ясно +35.5 +26.6 60 +52 +68 опасность
перегрева
1005.7 999.4
09 16.09 Ю 2 4000 м мгла ясно +40.0 +25.6 44 +54 +68 опасность
перегрева
1003.1 996.9
12 16.09 ЮЗ 3 4000 м мгла ясно +41.0 +24.4 39 +52 +54 опасность
перегрева
1000.9 993.3 +41.5
15 16.09 штиль 0 4000 м мгла ясно +35.5 +24.4 53 +48 +48 опасность
перегрева
1001.4 995.1
18 16.09 Ю 5 4000 м мгла ясно +33.0 +24.6 61 +46 +46 опасность
перегрева
1003.4 997.0
21 16.09 Ю 4 4000 м мгла ясно +31.5 +25.2 69 +45 +45 опасность
перегрева
1002.8 996.4
00 17.09 Ю 3 4000 м мгла ясно +29.0 +24.8 78 +41 +41 опасность
перегрева
1002.4 994.8
03 17.09 ЮВ 3 4000 м дымка 1/1 900 м
[Sc]
+28.0 +25.2 85 +41 +43 опасность
перегрева
1004.1 996.5 +27.5
06 17.09 ЮВ 3 4000 м мгла ясно +33.0 +26.8 70 +51 +63 опасность
перегрева
1005.8 999.4
09 17.09 В 3 4000 м мгла ясно +38.5 +27.0 52 +56 +68 опасность
перегрева
1003.1 996.8
12 17.09 В 3 4000 м мгла ясно +39.5 +26.6 48 +55 +57 опасность
перегрева
1002.5 998.9 +40.0
15 17.09 Ю 5 4000 м мгла ясно +34.0 +27.0 67 +52 +52 опасность
перегрева
1003.5 997.2
18 17.09 Ю 4 4000 м мгла ясно +32.0 +24.2 63 +44 +44 опасность
перегрева
1006.3 999.9
21 17.09 Ю 4 4000 м мгла ясно +30.0 +24.3 72 +42 +42 опасность
перегрева
1005.8 999.4
00 18.09 Ю 3 4000 м мгла ясно +27.5 +23.9 81 +38 +38 очень
душно
1005.4 997.8
03 18.09 ЮВ 3 4000 м мгла ясно +29.0 +26.2 85 +44 +46 опасность
перегрева
1008.5 1000.9 +26.5
06 18.09 штиль 0 4000 м мгла ясно +34.0 +25.7 62 +49 +69 опасность
перегрева
1009.8 1003.4
09 18.09 штиль 0 4000 м мгла ясно +36.0 +27.8 63 +56 +76 опасность
перегрева
1008.4 1002.1
12 18.09 штиль 0 4000 м мгла ясно +37.5 +25.8 51 +52 +55 опасность
перегрева
1007.4 999.9 +38.5
15 18.09 штиль 0 2000 м мгла ясно +33.0 +26.8 70 +51 +51 опасность
перегрева
1006.8 1000.4
18 18.09 штиль 0 2000 м мгла ясно +31.5 +27.4 79 +50 +50 опасность
перегрева
1007.7 1001.3
21 18.09 штиль 0 2000 м мгла ясно +30.0 +25.8 78 +45 +45 опасность
перегрева
1007.2 1000.7
00 19.09 штиль 0 2000 м дымка ясно +28.0 +25.2 85 +41 +41 опасность
перегрева
1006.4 998.8
03 19.09 штиль 0 2000 м дымка ясно +29.0 +25.5 81 +43 +46 опасность
перегрева
1008.5 1000.9 +27.0
06 19.09 Ю 2 4000 м мгла ясно +36.0 +26.4 58 +53 +67 опасность
перегрева
1010.0 1003.7
09 19.09 штиль 0 4000 м мгла ясно +40.0 +24.8 42 +52 +72 опасность
перегрева
1007.7 1001.5
12 19.09 штиль 0 4000 м мгла ясно +39.5 +28.2 53 +60 +63 опасность
перегрева
1007.1 999.8 +40.0
15 19.09 штиль 0 4000 м мгла ясно +35.0 +26.8 63 +53 +53 опасность
перегрева
1006.2 999.9
18 19.09 штиль 0 4000 м мгла ясно +32.0 +25.8 70 +47 +47 опасность
перегрева
1007.5 1001.1
21 19.09 штиль 0 2000 м дымка ясно +29.0 +25.5 81 +43 +43 опасность
перегрева
1007.5 1001.0
00 20.09 штиль 0 2000 м дымка ясно +27.0 +24.1 84 +37 +37 очень
душно
1006.2 998.6
03 20.09 СВ 3 2000 м дымка ясно +29.0 +24.8 78 +41 +44 опасность
перегрева
1008.1 1000.5 +26.5
06 20.09 4000 м мгла ясно +35.0 +26.8 63 1009.3 1002.9
09 20.09 СВ 2 4000 м мгла ясно +38.0 +27.2 54 +56 +70 опасность
перегрева
1007.4 1001.1
12 20.09 СВ 3 4000 м мгла ясно +38.0 +24.0 45 +49 +51 опасность
перегрева
1004.5 997.1 +39.5
15 20.09 штиль 0 4000 м мгла ясно +33.0 +25.9 66 +48 +48 опасность
перегрева
1006.3 999.9
18 20.09 СВ 4 4000 м мгла ясно +31.0 +26.1 75 +46 +46 опасность
перегрева
1007.5 1001.1

 

Местоположение метеостанции Суккур (Пакистан): широта 27.71 долгота 68.77 высота над уровнем моря 57 м.

В архиве по умолчанию представлена погода в Суккуре за последнюю неделю. Архивные данные за месяц целиком и за предыдущие месяцы, начиная с января 2011 года, Вы можете получить, выбрав интересующий диапазон дат из раскрывающегося списка и нажав кнопку "Ввод!".


*Определитесь, кто Вы:
робот инопланетянин человек

Внимание! Время в таблицах - всемирное. Для получения местного времени необходимо прибавить поправку, которая равна 5 ч.

Смотрите также архив погоды в соседних городах и на ближайших метеорологических станциях:

Погода в Рохри (Пакистан) (14 км)
Погода в Ларкане (Пакистан) (62 км)
Погода в Джейкобабаде (Пакистан) (72 км)
Погода в Мохенджо-Даро (Пакистан) (77 км)
Погода в Пад Идан (Пакистан) (115 км)
Погода в Навабшахе (Пакистан) (167 км)
Погода в Рахим Яр Хан (Пакистан) (172 км)
Погода в Хуздаре (Пакистан) (211 км)
Погода в Ханпуре (Пакистан) (214 км)
Погода в Сиби (Пакистан) (222 км)

Пояснения к столбцам:

Ветер - указаны скорость ветра в м/с - средняя за 10 мин, порывы в срок и между сроками (в фигурных скобках) и направление, откуда дует ветер: С - северный, СВ - северо-восточный, В - восточный, ЮВ - юго-восточный, Ю - южный, ЮЗ - юго-западный, З - западный, СЗ - северо-западный.
Видимость - горизонтальная дальность видимости в метрах или километрах. При видимости от 1 до 10 км при отсутствии осадков обычно наблюдается дымка, при ухудшении видимости до 1 км и менее - туман. В сухую погоду видимость может ухудшаться дымом, пылью или мглою.
Явления - указаны атмосферные явления, наблюдавшиеся в срок или в последний час перед сроком; фигурными скобками обозначены явления, наблюдавшиеся между сроками (за 1-3 часа до срока); квадратными скобками обозначены град или гололедные отложения с указанием их диаметра в мм.
Облачность - указаны через наклонную черту общая и нижняя облачность в баллах и высота нижней границы облаков в метрах; квадратными скобками обозначены формы облаков: Ci - перистые, Cs - перисто-слоистые, Cc - перисто-кучевые, Ac - высококучевые, As - высокослоистые, Sc - слоисто-кучевые, Ns - слоисто-дождевые, Cu - кучевые, Cb - кучево-дождевые. Подробнее классификацию облаков см. в Атласе облаков (PDF).
T - Температура воздуха - температура, измеренная на высоте 2 м над землей.
Td - Температура точки росы - температура, при понижении до которой содержащийся в воздухе водяной пар достигнет насыщения.
f - Относительная влажность воздуха - влажноcть воздуха, измеренная на высоте 2 м над землей.
Te - Эффективная температура - температура, которую ощущает одетый по сезону человек в тени. Характеристика душности погоды. При расчете учитывается влияние влажности воздуха и скорости ветра на теплоощущения человека.
Tes - Эффективная температура на солнце - температура, которую ощущает человек, с поправкой на солнечный нагрев. Характеристика знойности погоды. Зависит от высоты солнца над горизонтом, облачности и скорости ветра. Ночью, в пасмурную погоду, а также при ветре 12 м/с и более поправка равна нулю.
P - Атмосферное давление - приведенное к уровню моря атмосферное давление.
Po - Атмосферное давление - измеренное на уровне метеостанции атмосферное давление.
Tmin - Минимальная температура - минимум температуры воздуха на высоте 2 м над землей.
Tmax - Максимальная температура - максимум температуры воздуха на высоте 2 м над землей.
R - Количество осадков - Количество выпавших осадков за период времени, мм. При наведении курсора мыши на число - период времени, за который выпало указанное количество осадков.
R24 - Количество осадков - Количество выпавших осадков за 24 часа, мм.
S - Снежный покров - Высота снежного покрова, см. При наведении курсора мыши на число - состояние снежного покрова и степень покрытия местности в баллах.